Location: Bucharest
(44.4268°N, 26.1025°E)
Time: 01:09:41
(UTC+03:00)

O/OREOS (USA 219) - Pass Details

Date: 08 July 2022
Orbit: 621 x 646 km, 72.0° (Epoch: 22 May)

Event Time Altitude Azimuth Distance (km) Brightness Sun altitude
Rises 22:26:39 0° 351° (N) 2,967 ? -12.2°
Reaches altitude 10° 22:30:09 10° 18° (NNE) 2,054 ? -12.6°
Maximum altitude 22:32:22 13° 47° (NE) 1,843 ? -12.9°
Drops below altitude 10° 22:34:34 10° 76° (ENE) 2,049 ? -13.1°
Enters shadow 22:35:55 - 89° (E) 2,341 ? -13.3°
